Ignacio, CO

5:29 PM MDT on September 28, 2016 (GMT -0600)
Durango-La Plata County

Weather History for KDRO - August, 2012

Change the Weather History Date:

Wednesday, August 29, 2012

  Actual Average Record
Temperature  
Mean Temperature 72 °F 64 °F  
Max Temperature 91 °F 81 °F 95 °F (1990)
Min Temperature 53 °F 48 °F 40 °F (1974)
Degree Days  
Heating Degree Days 0 2  
Month to date heating degree days 5 13  
Since 1 June heating degree days 30 138  
Since 1 July heating degree days 5 23  
Cooling Degree Days 7 1  
Month to date cooling degree days 142 83  
Year to date cooling degree days 429 234  
Since 1 June cooling degree days 429 233  
Growing Degree Days 23 (Base 50)    
Moisture  
Dew Point 40 °F    
Average Humidity 37    
Maximum Humidity 61    
Minimum Humidity 12    
Precipitation  
Precipitation 0.00 in 0.08 in 0.32 in (1986)
Month to date precipitation 0.85 2.02  
Year to date precipitation 5.26 9.81  
Sea Level Pressure  
Sea Level Pressure 29.98 in    
Wind  
Wind Speed 6 mph (NE)    
Max Wind Speed 23 mph    
Max Gust Speed 28 mph    
Visibility 10 miles    
Events      
T = Trace of Precipitation, MM = Missing Value Source: NWS Daily Summary

Daily Weather History Graph

Daily Weather History Graph

Search for Another Location

Airport or City:

Trip Planner

Search our weather history database for the weather conditions in past years. The results will help you decide how hot, cold, wet, or windy it might be!

Date:

Astronomy

Aug. 29, 2012 Rise Set
Actual Time 6:39 AM MDT 7:43 PM MDT
Civil Twilight 6:12 AM MDT 8:09 PM MDT
Nautical Twilight 5:41 AM MDT 8:41 PM MDT
Astronomical Twilight 5:08 AM MDT 9:14 PM MDT
Moon 6:24 PM MDT (8/29) 4:40 AM MDT (8/29)
Length of Visible Light 13h 56m
Length of Day
13h 03m
Waxing Gibbous, 96% of the Moon is Illuminated
Aug 29
Waxing Gibbous
Aug 31
Full
Sep 8
Last Quarter
Sep 15
New
Sep 22
First Quarter

Hourly Weather History & Observations

Time (MDT) Temp. Dew Point Humidity Pressure Visibility Wind Dir Wind Speed Gust Speed Precip Events Conditions
1:53 AM 64.0 °F 44.1 °F 48% 30.00 in 10.0 mi Calm Calm - N/A   Scattered Clouds
2:53 AM 59.0 °F 42.1 °F 53% 30.01 in 10.0 mi East 4.6 mph - N/A   Scattered Clouds
3:53 AM 61.0 °F 42.1 °F 50% 30.01 in 10.0 mi NNE 8.1 mph - N/A   Overcast
4:53 AM 57.9 °F 39.9 °F 51% 30.02 in 10.0 mi North 5.8 mph - N/A   Clear
5:53 AM 55.9 °F 42.1 °F 60% 30.04 in 10.0 mi Calm Calm - N/A   Clear
6:53 AM 57.0 °F 39.9 °F 53% 30.06 in 10.0 mi Calm Calm - N/A   Clear
7:53 AM 60.1 °F 41.0 °F 49% 30.07 in 10.0 mi North 3.5 mph - N/A   Clear
8:53 AM 66.0 °F 42.1 °F 42% 30.05 in 10.0 mi Calm Calm - N/A   Clear
9:53 AM 75.0 °F 37.0 °F 25% 30.03 in 10.0 mi ESE 5.8 mph - N/A   Clear
10:53 AM 78.1 °F 36.0 °F 22% 30.01 in 10.0 mi East 3.5 mph - N/A   Clear
11:53 AM 82.0 °F 37.9 °F 21% 29.98 in 10.0 mi Variable 5.8 mph - N/A   Clear
12:53 PM 82.9 °F 35.1 °F 18% 29.94 in 10.0 mi Calm Calm - N/A   Clear
1:53 PM 86.0 °F 34.0 °F 16% 29.90 in 10.0 mi WSW 4.6 mph - N/A   Clear
2:53 PM 91.0 °F 32.0 °F 12% 29.88 in 10.0 mi Variable 3.5 mph - N/A   Partly Cloudy
3:53 PM 82.9 °F 41.0 °F 23% 29.88 in 10.0 mi North 17.3 mph 27.6 mph N/A   Scattered Clouds
4:02 PM 82.4 °F 39.2 °F 21% 30.16 in 10.0 mi North 12.7 mph 21.9 mph N/A   Scattered Clouds
4:53 PM 84.0 °F 41.0 °F 22% 29.88 in 10.0 mi North 13.8 mph - N/A   Clear
5:34 PM 80.6 °F 42.8 °F 26% 30.18 in 10.0 mi East 17.3 mph 25.3 mph N/A   Mostly Cloudy
5:53 PM 78.1 °F 43.0 °F 29% 29.94 in 10.0 mi ENE 17.3 mph 26.5 mph N/A   Scattered Clouds
6:53 PM 78.1 °F 43.0 °F 29% 29.92 in 10.0 mi NE 16.1 mph - N/A   Clear
7:53 PM 75.9 °F 42.1 °F 30% 29.91 in 10.0 mi North 8.1 mph - N/A   Clear
8:53 PM 73.0 °F 42.1 °F 33% 29.90 in 10.0 mi SE 3.5 mph - N/A   Clear
9:53 PM 72.0 °F 42.1 °F 34% 29.89 in 10.0 mi Calm Calm - N/A   Clear
10:53 PM 68.0 °F 44.1 °F 42% 29.91 in 10.0 mi East 3.5 mph - N/A   Clear
11:53 PM 68.0 °F 45.0 °F 43% 29.90 in 10.0 mi NNE 3.5 mph - N/A   Partly Cloudy